Location: Prestwich
(53.5236°N, 2.2783°W)
Time: 00:36:40
(UTC+01:00)

ISS - Visible Passes

Search period start: 22 October 2019 00:00
Search period end: 31 October 2019 23:00
Orbit: 411 x 421 km, 51.6° (Epoch: 21 October)

Date Brightness Start Highest point End Pass type
(mag) Time Alt. Az. Time Alt. Az. Time Alt. Az.
25 Oct -0.7 06:37:18 10° SSE 06:38:34 12° SE 06:39:49 10° ESE visible
27 Oct -1.5 05:35:00 10° SSW 05:37:38 22° SSE 05:40:18 10° E visible
28 Oct -1.1 04:47:33 12° S 04:49:13 16° SE 04:51:20 10° ESE visible
29 Oct -0.7 04:01:15 11° SE 04:01:15 11° SE 04:01:46 10° ESE visible
29 Oct -2.4 05:34:09 13° SW 05:36:50 36° SSE 05:39:57 10° E visible
30 Oct -2.2 04:47:44 26° S 04:48:18 27° SSE 04:51:14 10° E visible
30 Oct -3.3 06:21:22 10° WSW 06:24:42 60° S 06:28:01 10° E visible
31 Oct -1.0 04:01:13 16° ESE 04:01:13 16° ESE 04:02:23 10° E visible
31 Oct -3.2 05:34:07 21° WSW 05:36:05 52° SSE 05:39:22 10° E visible
